Location: Pinawa
(50.1500°N, 95.8830°W)
Time: 06:41:03
(UTC-06:00)

Amateur Radio Satellites - All Passes

Search period start: 14 February 2016 06:11
Search period end: 15 February 2016 06:11
Location: Pinawa, 50.1500°N, 95.8830°W

Satellite Date Start Highest point End Downlink Frequencies (MHz)
Time Altitude Azimuth
SO-50 14 Feb 06:25:52 06:30:11 29° 329° (NNW) 06:34:31 436.795
BRITE-PL 14 Feb 06:27:42 06:31:37 26° 92° (E) 06:35:18 437.365/2234.400
HORYU 2 14 Feb 06:31:54 06:35:04 19° 301° (WNW) 06:38:15 437.375
Cosmos 2504 14 Feb 06:32:31 06:40:36 39° 295° (WNW) 06:48:49 435.465 / 435.565
CUBESAT XI-V 14 Feb 06:41:44 06:44:23 15° 273° (W) 06:47:04 437.345
M-CUBED/EXP-1 PRIME 14 Feb 06:42:40 06:44:18 13° 306° (NW) 06:45:57 437.505
AO-7 14 Feb 06:44:39 06:51:29 30° 313° (NW) 06:58:18 29.400- 29.500
AUBIESAT-1 14 Feb 06:47:56 06:49:45 14° 305° (NW) 06:51:37 437.475
LilacSat-2 14 Feb 07:07:11 07:10:59 77° 285° (WNW) 07:14:46 437.200
GOMX 1 14 Feb 07:08:40 07:12:36 31° 95° (E) 07:16:21 467.674
O/OREOS (USA 219) 14 Feb 07:14:18 07:18:31 41° 109° (ESE) 07:22:48 437.305
CUTE-I 14 Feb 07:24:59 07:30:20 66° 290° (WNW) 07:35:40 437.470
Cosmos 2499 14 Feb 07:37:43 07:41:59 15° 69° (ENE) 07:46:15 435.465 / 435.565
GONETS M04 14 Feb 07:39:30 07:46:48 32° 81° (E) 07:54:08
STRAND 1 14 Feb 07:39:35 07:43:57 28° 266° (W) 07:48:21 437.568
Cubesat XI-IV 14 Feb 07:40:23 07:45:37 51° 292° (WNW) 07:50:48 437.490
PRISM 14 Feb 07:41:29 07:45:36 59° 259° (WSW) 07:49:46 437.425
HO-68 14 Feb 07:45:09 07:51:08 27° 91° (E) 07:57:03 435.675
CANX-2 14 Feb 07:59:54 08:03:35 27° 94° (E) 08:07:15 2200.000
DOVE 4 14 Feb 08:03:02 08:07:12 56° 100° (E) 08:11:16 437.250
BRITE-PL 14 Feb 08:05:53 08:10:20 41° 293° (WNW) 08:14:28 437.365/2234.400
SO-50 14 Feb 08:09:16 08:12:14 16° 353° (N) 08:15:12 436.795
AO-85 14 Feb 08:11:06 08:11:52 10° 104° (ESE) 08:12:38 145.980
CINEMA 3 14 Feb 08:21:36 08:25:21 32° 96° (E) 08:29:07 145.822/145.860
COMPASS 1 14 Feb 08:24:18 08:27:49 25° 93° (E) 08:31:18 437.405
UNISAT 6 14 Feb 08:27:03 08:29:34 15° 58° (ENE) 08:32:04 437.425
Cosmos 2504 14 Feb 08:34:32 08:37:13 11° 322° (NW) 08:39:53 435.465 / 435.565
AO-7 14 Feb 08:39:18 08:41:35 11° 339° (NNW) 08:43:53 29.400- 29.500
GOMX 1 14 Feb 08:46:49 08:50:43 31° 295° (WNW) 08:54:26 467.674
SEEDS 14 Feb 08:46:57 08:51:09 53° 100° (E) 08:55:20 437.485
AAUSAT CUBESAT 2 14 Feb 08:47:58 08:51:51 34° 96° (E) 08:55:42 437.432
CUTE 1.7 + AOD 2 14 Feb 08:49:17 08:53:36 73° 102° (ESE) 08:57:53 437.475
O/OREOS (USA 219) 14 Feb 08:54:04 08:58:03 30° 309° (NW) 09:02:04 437.305
Oscar 11 14 Feb 09:01:02 09:04:28 22° 92° (E) 09:07:53 145.826/435.025
CUTE-I 14 Feb 09:06:47 09:09:27 14° 310° (NW) 09:12:06 437.470
ANTELSAT 14 Feb 09:10:16 09:14:09 35° 67° (ENE) 09:18:03 437.575/2403.000
TIGRISAT 14 Feb 09:15:21 09:19:17 38° 68° (ENE) 09:23:14 435.000
POLYITAN 1 14 Feb 09:17:44 09:19:51 14° 57° (ENE) 09:21:57 437.675
QB50P2 14 Feb 09:18:00 09:20:14 14° 57° (ENE) 09:22:27 145.880/145.840
UWE-3 14 Feb 09:22:04 09:26:01 37° 97° (E) 09:30:02 435.000/436.395/437.385
Cubesat XI-IV 14 Feb 09:23:07 09:24:32 11° 313° (NW) 09:25:57 437.490
DELFI C3 14 Feb 09:23:25 09:26:28 20° 92° (E) 09:29:29 145.870
Cosmos 2499 14 Feb 09:24:39 09:33:15 60° 91° (E) 09:41:52 435.465 / 435.565
CUBEBUG 2 14 Feb 09:31:44 09:35:54 63° 101° (ESE) 09:40:10 437.445
HO-68 14 Feb 09:32:18 09:39:30 74° 292° (WNW) 09:46:40 435.675
GONETS M04 14 Feb 09:34:17 09:42:57 70° 284° (WNW) 09:51:43
CANX-2 14 Feb 09:35:34 09:39:32 37° 292° (WNW) 09:43:29 2200.000
PCSat 14 Feb 09:41:00 09:45:41 31° 112° (ESE) 09:50:24 145.827
DOVE 4 14 Feb 09:41:39 09:44:33 18° 300° (WNW) 09:47:25 437.250
HUMSAT D 14 Feb 09:41:53 09:44:18 15° 89° (E) 09:46:42 437.325/437.525
POPSAT HIP 1 14 Feb 09:45:07 09:48:26 23° 63° (ENE) 09:51:44 437.405
DUCHIFAT 1 14 Feb 09:45:54 09:49:07 22° 62° (ENE) 09:52:21 145.980
AO-85 14 Feb 09:46:00 09:51:17 56° 122° (ESE) 09:56:40 145.980
NANOSAT C BR1 14 Feb 09:46:38 09:49:56 23° 63° (ENE) 09:53:16 145.865
SO-50 14 Feb 09:51:07 09:54:34 19° 17° (NNE) 09:57:58 436.795
QB50P1 14 Feb 09:56:52 10:00:31 29° 65° (ENE) 10:04:10 145.935-145.965
CINEMA 3 14 Feb 09:58:53 10:02:30 29° 294° (WNW) 10:06:08 145.822/145.860
COMPASS 1 14 Feb 09:59:34 10:03:32 39° 291° (WNW) 10:07:28 437.405
UNISAT 6 14 Feb 10:01:30 10:05:47 75° 256° (WSW) 10:10:04 437.425
ZACube-1 14 Feb 10:04:40 10:08:55 72° 103° (ESE) 10:13:14 437.345
RS-15 14 Feb 10:06:25 10:15:49 33° 105° (ESE) 10:25:36 29.354- 29.394
FUNcube-1 14 Feb 10:11:05 10:15:20 80° 104° (ESE) 10:19:39 145.935
AIST 1 14 Feb 10:18:29 10:22:50 62° 96° (E) 10:27:12
SEEDS 14 Feb 10:23:24 10:26:32 20° 299° (WNW) 10:29:40 437.485
AAUSAT CUBESAT 2 14 Feb 10:23:39 10:27:17 28° 295° (WNW) 10:30:53 437.432
BUGSAT 1 14 Feb 10:25:41 10:29:17 29° 65° (ENE) 10:32:51 437.445
CUTE 1.7 + AOD 2 14 Feb 10:26:19 10:28:57 16° 301° (WNW) 10:31:34 437.475
VELOX 1 14 Feb 10:34:58 10:35:59 11° 86° (E) 10:36:58 145.980
Oscar 11 14 Feb 10:36:40 10:40:50 46° 291° (WNW) 10:45:00 145.826/435.025
JAS-2 14 Feb 10:38:42 10:41:21 13° 46° (NE) 10:43:54 435.910
ANTELSAT 14 Feb 10:47:18 10:50:58 27° 265° (W) 10:54:39 437.575/2403.000
POLYITAN 1 14 Feb 10:50:51 10:55:05 86° 257° (WSW) 10:59:19 437.675
AISAT 14 Feb 10:51:04 10:53:52 16° 90° (E) 10:56:39 437.250
QB50P2 14 Feb 10:51:14 10:55:28 83° 255° (WSW) 10:59:44 145.880/145.840
TIGRISAT 14 Feb 10:52:33 10:56:07 26° 266° (W) 10:59:42 435.000
CUBEBUG 1 14 Feb 10:56:17 10:58:51 15° 89° (E) 11:01:25 437.445
DX 1 14 Feb 10:56:56 10:59:59 18° 91° (E) 11:03:02 434.975-435.025
DELFI C3 14 Feb 10:57:43 11:01:36 45° 290° (WNW) 11:05:28 145.870
UWE-3 14 Feb 10:58:51 11:02:23 26° 295° (WNW) 11:05:58 435.000/436.395/437.385
CUBEBUG 2 14 Feb 11:09:23 11:12:09 17° 300° (WNW) 11:14:58 437.445
DANDE 14 Feb 11:09:49 11:15:03 21° 52° (NE) 11:19:24 436.750
HUMSAT D 14 Feb 11:16:13 11:20:23 67° 287° (WNW) 11:24:34 437.325/437.525
Cosmos 2499 14 Feb 11:18:34 11:26:48 41° 294° (WNW) 11:35:02 435.465 / 435.565
POPSAT HIP 1 14 Feb 11:19:56 11:24:00 45° 261° (W) 11:28:05 437.405
DUCHIFAT 1 14 Feb 11:20:31 11:24:35 47° 261° (W) 11:28:39 145.980
HO-68 14 Feb 11:21:06 11:26:08 21° 314° (NW) 11:31:09 435.675
NANOSAT C BR1 14 Feb 11:21:26 11:25:28 44° 261° (W) 11:29:32 145.865
PCSat 14 Feb 11:23:31 11:28:51 56° 312° (NW) 11:34:13 145.827
AO-85 14 Feb 11:26:57 11:32:05 39° 324° (NW) 11:37:14 145.980
SO-50 14 Feb 11:31:29 11:36:14 47° 41° (NE) 11:40:49 436.795
ESTCUBE 1 14 Feb 11:32:02 11:36:24 43° 98° (E) 11:40:43 437.505/2401.250
QB50P1 14 Feb 11:32:23 11:36:15 34° 264° (W) 11:40:07 145.935-145.965
Gurwin Techsat 1B 14 Feb 11:32:42 11:34:30 12° 48° (NE) 11:36:19 435.225
GONETS M04 14 Feb 11:35:42 11:41:42 20° 309° (NW) 11:47:46
CUSAT 1 14 Feb 11:36:42 11:42:11 40° 66° (ENE) 11:46:21 437.405
ZACube-1 14 Feb 11:42:12 11:44:45 16° 301° (WNW) 11:47:19 437.345
50 SAT 14 Feb 11:44:14 11:48:02 62° 102° (ESE) 11:51:48 437.505
FUNcube-1 14 Feb 11:48:46 11:51:04 15° 302° (WNW) 11:53:24 145.935
Oscar 19 14 Feb 11:56:45 12:01:25 35° 64° (ENE) 12:06:05 437.125/150
AIST 1 14 Feb 11:57:56 12:00:54 17° 296° (WNW) 12:03:52
BUGSAT 1 14 Feb 12:00:50 12:04:36 33° 263° (W) 12:08:23 437.445
TISAT 1 14 Feb 12:03:49 12:04:26 10° 86° (E) 12:05:03 437.305
VELOX 1 14 Feb 12:08:44 12:13:12 83° 104° (ESE) 12:17:36 145.980
UKube-1 14 Feb 12:11:00 12:15:21 80° 103° (ESE) 12:19:40 .
SPROUT 14 Feb 12:11:42 12:15:32 31° 95° (E) 12:19:21 437.525
AO-7 14 Feb 12:14:59 12:19:56 17° 34° (NE) 12:24:51 29.400- 29.500
RS-15 14 Feb 12:15:36 12:26:55 86° 311° (NW) 12:38:56 29.354- 29.394
YUBILEINY 14 Feb 12:16:12 12:23:17 26° 56° (NE) 12:30:18 435.215
JAS-2 14 Feb 12:18:11 12:25:06 48° 66° (ENE) 12:31:20 435.910
AISAT 14 Feb 12:26:26 12:30:50 65° 288° (WNW) 12:35:10 437.250
POLYITAN 1 14 Feb 12:31:02 12:31:35 10° 274° (W) 12:32:10 437.675
CUBEBUG 1 14 Feb 12:31:17 12:35:39 68° 287° (WNW) 12:39:57 437.445
DX 1 14 Feb 12:32:16 12:36:33 56° 290° (WNW) 12:40:48 434.975-435.025
Cosmos 2491 14 Feb 12:38:39 12:39:20 10° 65° (ENE) 12:40:00 435.465 / 435.565
DANDE 14 Feb 12:52:17 12:59:18 87° 255° (WSW) 13:04:29 436.750
Gurwin Techsat 1B 14 Feb 13:08:12 13:13:23 56° 69° (ENE) 13:18:36 435.225
ESTCUBE 1 14 Feb 13:09:14 13:13:02 27° 297° (WNW) 13:16:48 437.505/2401.250
PCSat 14 Feb 13:09:36 13:13:27 19° 336° (NNW) 13:17:18 145.827
AO-85 14 Feb 13:10:12 13:14:03 19° 347° (NNW) 13:17:52 145.980
SO-50 14 Feb 13:12:15 13:16:37 34° 242° (WSW) 13:20:51 436.795
ITAMSAT 1 14 Feb 13:16:41 13:21:27 38° 64° (ENE) 13:26:17 435.822/435.867
50 SAT 14 Feb 13:19:23 13:21:37 15° 300° (WNW) 13:23:51 437.505
CUSAT 1 14 Feb 13:19:28 13:24:10 28° 275° (W) 13:27:54 437.405
Cosmos 2499 14 Feb 13:19:52 13:22:58 12° 321° (NW) 13:26:04 435.465 / 435.565
ITUPSAT 1 14 Feb 13:30:18 13:33:31 17° 89° (E) 13:36:42 437.325
BEESAT 14 Feb 13:35:08 13:38:37 20° 91° (E) 13:42:04 436.000
Oscar 19 14 Feb 13:35:51 13:40:42 39° 263° (W) 13:45:34 437.125/150
TISAT 1 14 Feb 13:36:35 13:40:47 87° 108° (ESE) 13:44:57 437.305
VELOX 1 14 Feb 13:46:34 13:49:05 15° 304° (WNW) 13:51:36 145.980
SPROUT 14 Feb 13:47:44 13:51:30 31° 294° (WNW) 13:55:16 437.525
UKube-1 14 Feb 13:48:21 13:50:52 15° 303° (WNW) 13:53:21 .
AO-7 14 Feb 14:02:55 14:10:51 50° 58° (ENE) 14:18:48 29.400- 29.500
JAS-2 14 Feb 14:03:17 14:10:13 42° 263° (W) 14:16:30 435.910
AISAT 14 Feb 14:05:37 14:06:28 10° 308° (NW) 14:07:19 437.250
ISS 14 Feb 14:08:12 14:10:12 15° 139° (SE) 14:12:13 145.825
CUBEBUG 1 14 Feb 14:10:04 14:11:08 11° 307° (NW) 14:12:11 437.445
YUBILEINY 14 Feb 14:12:33 14:21:29 88° 84° (E) 14:30:19 435.215
HORYU 2 14 Feb 14:22:42 14:25:17 15° 56° (ENE) 14:27:52 437.375
M-CUBED/EXP-1 PRIME 14 Feb 14:24:52 14:27:26 20° 58° (ENE) 14:29:55 437.505
Cosmos 2491 14 Feb 14:25:37 14:33:50 49° 88° (E) 14:42:04 435.465 / 435.565
Cosmos 2504 14 Feb 14:25:41 14:33:18 33° 61° (ENE) 14:40:27 435.465 / 435.565
SWISSCUBE 14 Feb 14:27:23 14:32:10 60° 102° (ESE) 14:36:54 437.505
AUBIESAT-1 14 Feb 14:30:00 14:32:30 19° 58° (ENE) 14:34:57 437.475
RS-15 14 Feb 14:30:07 14:41:04 45° 341° (NNW) 14:52:34 29.354- 29.394
DANDE 14 Feb 14:36:58 14:40:48 16° 285° (WNW) 14:44:08 436.750
Gurwin Techsat 1B 14 Feb 14:49:20 14:53:41 25° 268° (W) 14:58:03 435.225
AO-85 14 Feb 14:52:49 14:56:33 18° 11° (NNE) 15:00:09 145.980
ITAMSAT 1 14 Feb 14:56:12 15:00:57 36° 263° (W) 15:05:47 435.822/435.867
PCSat 14 Feb 14:56:30 14:59:04 13° 2° (N) 15:01:38 145.827
STARS 14 Feb 14:59:05 14:59:34 10° 86° (E) 15:00:03 437.465
ITUPSAT 1 14 Feb 15:07:03 15:11:52 70° 288° (WNW) 15:16:40 437.325
BEESAT 14 Feb 15:12:04 15:16:50 62° 289° (WNW) 15:21:34 436.000
TISAT 1 14 Feb 15:13:51 15:15:51 13° 304° (WNW) 15:17:51 437.305
KKS-1 14 Feb 15:27:17 15:31:19 33° 97° (E) 15:35:20 437.445
CUTE-I 14 Feb 15:36:26 15:38:02 11° 47° (NE) 15:39:40 437.470
O/OREOS (USA 219) 14 Feb 15:40:21 15:44:22 29° 50° (NE) 15:48:22 437.305
ISS 14 Feb 15:42:58 15:46:10 64° 158° (SSE) 15:49:24 145.825
Cubesat XI-IV 14 Feb 15:50:27 15:53:14 14° 51° (NE) 15:56:01 437.490
AO-7 14 Feb 15:55:38 16:03:41 50° 260° (W) 16:11:46 29.400- 29.500
HORYU 2 14 Feb 15:56:52 16:01:17 81° 255° (WSW) 16:05:45 437.375
MOZHAYETS 4 14 Feb 15:58:43 16:02:54 32° 95° (E) 16:07:03
M-CUBED/EXP-1 PRIME 14 Feb 15:58:47 16:01:58 34° 255° (WSW) 16:05:02 437.505
AUBIESAT-1 14 Feb 16:03:44 16:06:57 36° 255° (WSW) 16:10:04 437.475
SWISSCUBE 14 Feb 16:05:54 16:09:36 22° 301° (WNW) 16:13:17 437.505
BRITE-PL 14 Feb 16:07:54 16:09:33 11° 51° (NE) 16:11:11 437.365/2234.400
BEESAT 3 14 Feb 16:09:41 16:13:20 35° 121° (ESE) 16:17:00 437.485
YUBILEINY 14 Feb 16:10:33 16:17:09 24° 284° (WNW) 16:23:43 435.215
Cosmos 2504 14 Feb 16:18:56 16:27:31 71° 266° (W) 16:35:28 435.465 / 435.565
LilacSat-2 14 Feb 16:21:57 16:23:28 12° 58° (ENE) 16:24:57 437.200
Cosmos 2491 14 Feb 16:22:27 16:30:46 47° 291° (WNW) 16:39:08 435.465 / 435.565
STARS 14 Feb 16:32:17 16:36:42 81° 106° (ESE) 16:41:03 437.465
AO-85 14 Feb 16:33:35 16:38:34 37° 35° (NE) 16:43:12 145.980
HO-68 14 Feb 16:38:03 16:39:25 11° 33° (NNE) 16:40:47 435.675
PCSat 14 Feb 16:40:24 16:44:35 22° 28° (NNE) 16:48:46 145.827
BEESAT 2 14 Feb 16:43:16 16:47:10 49° 123° (ESE) 16:51:04 435.950
RS-15 14 Feb 16:45:51 16:56:59 43° 14° (NNE) 17:08:29 29.354- 29.394
GOMX 1 14 Feb 16:46:23 16:48:07 12° 54° (NE) 16:49:50 467.674
ITUPSAT 1 14 Feb 16:46:47 16:48:53 13° 308° (NW) 16:50:59 437.325
BEESAT 14 Feb 16:52:10 16:53:43 11° 309° (NW) 16:55:15 436.000
CUBESAT XI-V 14 Feb 16:54:57 16:57:39 15° 87° (E) 17:00:19 437.345
KKS-1 14 Feb 17:03:56 17:07:52 32° 295° (WNW) 17:11:48 437.445
CUTE-I 14 Feb 17:11:48 17:16:59 53° 68° (ENE) 17:22:12 437.470
ISS 14 Feb 17:19:25 17:22:40 65° 357° (N) 17:25:53 145.825
O/OREOS (USA 219) 14 Feb 17:19:34 17:23:57 45° 250° (WSW) 17:28:20 437.305
Cubesat XI-IV 14 Feb 17:27:06 17:32:25 70° 70° (ENE) 17:37:46 437.490
MOZHAYETS 4 14 Feb 17:35:51 17:40:07 36° 293° (WNW) 17:44:21
DOVE 4 14 Feb 17:37:13 17:40:07 16° 58° (ENE) 17:42:55 437.250
HORYU 2 14 Feb 17:37:50 17:38:36 10° 274° (W) 17:39:23 437.375
BRITE-PL 14 Feb 17:41:35 17:47:02 54° 70° (ENE) 17:52:13 437.365/2234.400
GONETS M04 14 Feb 17:42:25 17:48:57 22° 53° (NE) 17:55:27
AIST 2 14 Feb 17:43:05 17:46:30 25° 117° (ESE) 17:49:57 435.215
BEESAT 3 14 Feb 17:47:24 17:51:06 35° 320° (NW) 17:54:49 437.485
LilacSat-2 14 Feb 17:53:25 17:57:14 81° 257° (WSW) 18:01:02 437.200
STRAND 1 14 Feb 18:07:48 18:09:14 11° 84° (E) 18:10:40 437.568
STARS 14 Feb 18:09:59 18:12:30 15° 303° (WNW) 18:15:01 437.465
CUTE 1.7 + AOD 2 14 Feb 18:13:13 18:15:13 13° 57° (ENE) 18:17:13 437.475
AO-85 14 Feb 18:14:14 18:19:21 54° 238° (WSW) 18:24:02 145.980
Cosmos 2504 14 Feb 18:14:16 18:19:12 17° 289° (WNW) 18:24:00 435.465 / 435.565
HO-68 14 Feb 18:18:46 18:25:05 35° 56° (NE) 18:31:26 435.675
GOMX 1 14 Feb 18:20:12 18:25:23 62° 72° (ENE) 18:30:15 467.674
BEESAT 2 14 Feb 18:21:42 18:25:15 29° 324° (NW) 18:28:48 435.950
PCSat 14 Feb 18:23:30 18:28:58 70° 51° (NE) 18:34:23 145.827
Cosmos 2491 14 Feb 18:26:38 18:30:27 13° 319° (NW) 18:34:17 435.465 / 435.565
CUBESAT XI-V 14 Feb 18:30:54 18:35:38 78° 288° (WNW) 18:40:18 437.345
CUTE-I 14 Feb 18:52:52 18:57:20 27° 267° (W) 19:01:50 437.470
ISS 14 Feb 18:55:58 18:59:13 85° 197° (SSW) 19:02:28 145.825
CANX-2 14 Feb 18:57:02 19:00:51 34° 67° (ENE) 19:04:43 2200.000
RS-15 14 Feb 18:59:32 19:11:39 76° 44° (NE) 19:24:03 29.354- 29.394
CUBEBUG 2 14 Feb 19:00:36 19:02:29 13° 57° (ENE) 19:04:21 437.445
Cubesat XI-IV 14 Feb 19:09:07 19:13:01 20° 270° (W) 19:16:57 437.490
Cosmos 2499 14 Feb 19:11:02 19:18:14 30° 60° (ENE) 19:24:57 435.465 / 435.565
DOVE 4 14 Feb 19:12:23 19:17:18 84° 256° (WSW) 19:21:57 437.250
COMPASS 1 14 Feb 19:19:31 19:23:10 30° 66° (ENE) 19:26:52 437.405
PRISM 14 Feb 19:19:55 19:22:10 14° 89° (E) 19:24:25 437.425
AIST 2 14 Feb 19:20:43 19:24:47 50° 316° (NW) 19:28:52 435.215
BRITE-PL 14 Feb 19:20:59 19:25:44 28° 267° (W) 19:30:20 437.365/2234.400
CINEMA 3 14 Feb 19:27:27 19:31:47 52° 71° (ENE) 19:35:58 145.822/145.860
BEESAT 3 14 Feb 19:28:08 19:29:57 13° 343° (NNW) 19:31:48 437.485
ZACube-1 14 Feb 19:31:18 19:33:22 14° 57° (ENE) 19:35:27 437.345
FUNcube-1 14 Feb 19:37:11 19:39:30 15° 58° (ENE) 19:41:49 145.935
GONETS M04 14 Feb 19:38:36 19:47:28 77° 78° (ENE) 19:56:19
AAUSAT CUBESAT 2 14 Feb 19:42:34 19:46:29 42° 69° (ENE) 19:50:27 437.432
SEEDS 14 Feb 19:42:57 19:47:06 66° 73° (ENE) 19:51:18 437.485
STRAND 1 14 Feb 19:44:10 19:49:21 71° 103° (ESE) 19:54:31 437.568
CUTE 1.7 + AOD 2 14 Feb 19:46:12 19:50:26 89° 258° (WSW) 19:54:43 437.475
GOMX 1 14 Feb 19:59:49 20:03:48 22° 269° (W) 20:07:38 467.674
Oscar 11 14 Feb 20:00:05 20:03:51 30° 65° (ENE) 20:07:39 145.826/435.025
BEESAT 2 14 Feb 20:02:54 20:04:24 12° 347° (NNW) 20:05:54 435.950
HO-68 14 Feb 20:05:20 20:12:27 63° 257° (WSW) 20:19:38 435.675
PCSat 14 Feb 20:07:40 20:11:53 23° 251° (WSW) 20:16:05 145.827
CUBESAT XI-V 14 Feb 20:10:01 20:12:15 13° 306° (NW) 20:14:30 437.345
DELFI C3 14 Feb 20:14:12 20:17:23 23° 64° (ENE) 20:20:35 145.870
AIST 1 14 Feb 20:21:04 20:24:44 26° 69° (ENE) 20:28:22
UWE-3 14 Feb 20:23:30 20:27:35 53° 71° (ENE) 20:31:39 435.000/436.395/437.385
ISS 14 Feb 20:32:44 20:35:21 23° 216° (SW) 20:37:59 145.825
CANX-2 14 Feb 20:33:06 20:36:46 28° 266° (W) 20:40:29 2200.000
CUBEBUG 2 14 Feb 20:34:17 20:38:31 89° 240° (WSW) 20:42:43 437.445
HUMSAT D 14 Feb 20:37:45 20:40:40 19° 61° (ENE) 20:43:36 437.325/437.525
DOVE 4 14 Feb 20:53:44 20:55:39 12° 274° (W) 20:57:32 437.250
PRISM 14 Feb 20:53:49 20:58:00 69° 287° (WNW) 21:02:08 437.425
COMPASS 1 14 Feb 20:55:00 20:58:44 31° 265° (W) 21:02:31 437.405
AIST 2 14 Feb 21:01:39 21:04:13 16° 338° (NNW) 21:06:47 435.215
ESTCUBE 1 14 Feb 21:02:45 21:04:17 12° 53° (NE) 21:05:49 437.505/2401.250
Cosmos 2499 14 Feb 21:03:56 21:12:20 76° 265° (W) 21:20:02 435.465 / 435.565
ZACube-1 14 Feb 21:04:56 21:09:06 82° 255° (WSW) 21:13:17 437.345
CINEMA 3 14 Feb 21:05:59 21:09:14 20° 268° (W) 21:12:24 145.822/145.860
BEESAT 3 14 Feb 21:08:49 21:09:27 10° 7° (N) 21:10:05 437.485
FUNcube-1 14 Feb 21:11:06 21:15:14 74° 256° (WSW) 21:19:24 145.935
RS-15 14 Feb 21:12:29 21:23:31 44° 250° (WSW) 21:34:43 29.354- 29.394
AAUSAT CUBESAT 2 14 Feb 21:18:53 21:22:11 22° 268° (W) 21:25:31 437.432
SEEDS 14 Feb 21:20:52 21:23:17 15° 272° (W) 21:25:43 437.485
STRAND 1 14 Feb 21:24:13 21:28:03 21° 303° (WNW) 21:31:52 437.568
CUTE 1.7 + AOD 2 14 Feb 21:25:52 21:26:57 11° 274° (W) 21:28:03 437.475
VELOX 1 14 Feb 21:35:37 21:38:45 19° 59° (ENE) 21:41:54 145.980
UKube-1 14 Feb 21:35:41 21:38:33 18° 58° (ENE) 21:41:26 .
Oscar 11 14 Feb 21:36:03 21:39:57 33° 264° (W) 21:43:54 145.826/435.025
GONETS M04 14 Feb 21:36:20 21:43:27 29° 281° (W) 21:50:35
BEESAT 2 14 Feb 21:42:48 21:44:03 11° 11° (N) 21:45:18 435.950
DELFI C3 14 Feb 21:48:20 21:52:07 40° 262° (W) 21:55:55 145.870
UNISAT 6 14 Feb 21:49:19 21:52:07 16° 90° (E) 21:54:56 437.425
AISAT 14 Feb 21:52:33 21:56:18 27° 63° (ENE) 22:00:03 437.250
CUBEBUG 1 14 Feb 21:56:17 21:59:50 24° 62° (ENE) 22:03:23 437.445
DX 1 14 Feb 21:56:31 22:00:20 30° 64° (ENE) 22:04:08 434.975-435.025
AIST 1 14 Feb 21:58:27 22:02:28 37° 269° (W) 22:06:25
HO-68 14 Feb 21:58:32 22:01:40 13° 278° (W) 22:04:48 435.675
UWE-3 14 Feb 22:01:33 22:04:24 18° 270° (W) 22:07:15 435.000/436.395/437.385
HUMSAT D 14 Feb 22:12:01 22:15:59 52° 260° (W) 22:20:01 437.325/437.525
CUBEBUG 2 14 Feb 22:15:04 22:15:50 10° 274° (W) 22:16:35 437.445
50 SAT 14 Feb 22:28:35 22:32:15 59° 72° (ENE) 22:35:58 437.505
PRISM 14 Feb 22:31:47 22:32:33 10° 307° (NW) 22:33:18 437.425
ANTELSAT 14 Feb 22:33:17 22:37:26 41° 98° (E) 22:41:40 437.575/2403.000
POLYITAN 1 14 Feb 22:33:22 22:34:45 11° 87° (E) 22:36:07 437.675
QB50P2 14 Feb 22:33:34 22:35:08 12° 87° (E) 22:36:44 145.880/145.840
ESTCUBE 1 14 Feb 22:35:46 22:40:16 69° 72° (ENE) 22:44:49 437.505/2401.250
TIGRISAT 14 Feb 22:38:11 22:42:23 44° 99° (E) 22:46:37 435.000
AIST 2 14 Feb 22:43:21 22:44:25 11° 3° (N) 22:45:30 435.215
BEESAT 3 14 Feb 22:45:34 22:48:39 21° 30° (NNE) 22:51:44 437.485
Cosmos 2499 14 Feb 22:58:53 23:03:53 18° 288° (WNW) 23:08:42 435.465 / 435.565
TISAT 1 14 Feb 22:58:55 23:01:32 16° 59° (ENE) 23:04:09 437.305
POPSAT HIP 1 14 Feb 23:00:33 23:03:45 21° 92° (E) 23:06:56 437.405
DUCHIFAT 1 14 Feb 23:00:39 23:03:43 19° 92° (E) 23:06:45 145.980
NANOSAT C BR1 14 Feb 23:01:41 23:04:52 21° 92° (E) 23:08:03 145.865
SPROUT 14 Feb 23:09:38 23:13:43 44° 69° (ENE) 23:17:48 437.525
UKube-1 14 Feb 23:09:50 23:14:09 68° 257° (WSW) 23:18:31 .
VELOX 1 14 Feb 23:10:24 23:14:49 63° 258° (WSW) 23:19:16 145.980
QB50P1 14 Feb 23:12:23 23:15:59 27° 95° (E) 23:19:35 145.935-145.965
BEESAT 2 14 Feb 23:19:52 23:23:17 26° 34° (NE) 23:26:40 435.950
UNISAT 6 14 Feb 23:24:56 23:29:15 64° 288° (WNW) 23:33:40 437.425
AISAT 14 Feb 23:28:25 23:32:38 41° 261° (W) 23:36:54 437.250
CUBEBUG 1 14 Feb 23:31:38 23:35:54 47° 261° (W) 23:40:12 437.445
DX 1 14 Feb 23:32:24 23:36:27 36° 263° (W) 23:40:31 434.975-435.025
BUGSAT 1 14 Feb 23:38:04 23:41:24 24° 94° (E) 23:44:41 437.445
SWISSCUBE 15 Feb 00:02:29 00:05:48 19° 57° (ENE) 00:09:07 437.505
50 SAT 15 Feb 00:04:47 00:06:40 13° 271° (W) 00:08:34 437.505
POLYITAN 1 15 Feb 00:06:58 00:11:12 86° 285° (WNW) 00:15:25 437.675
QB50P2 15 Feb 00:07:20 00:11:34 84° 284° (WNW) 00:15:47 145.880/145.840
ANTELSAT 15 Feb 00:10:23 00:14:01 26° 296° (WNW) 00:17:42 437.575/2403.000
ESTCUBE 1 15 Feb 00:14:44 00:17:35 16° 271° (W) 00:20:27 437.505/2401.250
TIGRISAT 15 Feb 00:15:21 00:18:54 25° 297° (WNW) 00:22:28 435.000
AIST 2 15 Feb 00:21:31 00:24:31 19° 27° (NNE) 00:27:30 435.215
DANDE 15 Feb 00:22:35 00:28:41 23° 80° (E) 00:34:46 436.750
BEESAT 3 15 Feb 00:22:55 00:26:55 82° 229° (SW) 00:30:51 437.485
Cosmos 2491 15 Feb 00:29:38 00:37:19 32° 61° (ENE) 00:44:59 435.465 / 435.565
PHONESAT 2.4 15 Feb 00:30:34 00:32:28 15° 173° (S) 00:34:22 2401.200-2431.200
TISAT 1 15 Feb 00:32:32 00:36:44 70° 257° (WSW) 00:40:57 437.305
DUCHIFAT 1 15 Feb 00:35:39 00:39:42 49° 290° (WNW) 00:43:44 145.980
POPSAT HIP 1 15 Feb 00:35:45 00:39:48 46° 291° (WNW) 00:43:50 437.405
NANOSAT C BR1 15 Feb 00:36:51 00:40:52 46° 291° (WNW) 00:44:53 145.865
ITUPSAT 1 15 Feb 00:41:07 00:45:24 34° 64° (ENE) 00:49:43 437.325
CUSAT 1 15 Feb 00:42:03 00:49:35 44° 91° (E) 00:56:35 437.405
BEESAT 15 Feb 00:45:40 00:50:02 37° 66° (ENE) 00:54:27 436.000
SPROUT 15 Feb 00:46:29 00:49:53 23° 267° (W) 00:53:19 437.525
QB50P1 15 Feb 00:48:00 00:51:52 35° 293° (WNW) 00:55:42 145.935-145.965
BEESAT 2 15 Feb 00:57:32 01:01:29 59° 235° (SW) 01:05:24 435.950
UNISAT 6 15 Feb 01:04:40 01:05:11 10° 307° (NW) 01:05:42 437.425
JAS-2 15 Feb 01:08:37 01:12:46 21° 89° (E) 01:16:43 435.910
BUGSAT 1 15 Feb 01:13:11 01:16:55 36° 292° (WNW) 01:20:36 437.445
Gurwin Techsat 1B 15 Feb 01:20:52 01:23:59 15° 87° (E) 01:27:03 435.225
YUBILEINY 15 Feb 01:25:34 01:31:49 22° 75° (ENE) 01:38:05 435.215
SWISSCUBE 15 Feb 01:38:19 01:43:05 73° 256° (WSW) 01:47:55 437.505
Oscar 19 15 Feb 01:42:10 01:47:12 51° 100° (E) 01:52:11 437.125/150
POLYITAN 1 15 Feb 01:44:34 01:46:22 13° 304° (NW) 01:48:11 437.675
QB50P2 15 Feb 01:45:02 01:46:43 12° 304° (NW) 01:48:25 145.880/145.840
STARS 15 Feb 01:58:43 02:01:43 18° 59° (ENE) 02:04:43 437.465
AIST 2 15 Feb 01:59:33 02:03:44 74° 49° (NE) 02:07:51 435.215
DANDE 15 Feb 02:02:18 02:10:38 82° 99° (E) 02:18:57 436.750
BEESAT 3 15 Feb 02:02:55 02:03:58 11° 250° (WSW) 02:05:01 437.485
PHONESAT 2.4 15 Feb 02:07:10 02:08:57 14° 190° (S) 02:10:43 2401.200-2431.200
ITUPSAT 1 15 Feb 02:18:49 02:23:13 36° 263° (W) 02:27:40 437.325
BEESAT 15 Feb 02:23:36 02:27:53 32° 264° (W) 02:32:12 436.000
CUSAT 1 15 Feb 02:23:52 02:31:49 54° 289° (WNW) 02:39:04 437.405
Cosmos 2491 15 Feb 02:26:18 02:35:01 73° 265° (W) 02:43:44 435.465 / 435.565
KKS-1 15 Feb 02:29:30 02:33:51 55° 70° (ENE) 02:38:13 437.445
JAS-2 15 Feb 02:52:56 02:58:31 63° 291° (WNW) 03:03:39 435.910
Gurwin Techsat 1B 15 Feb 02:59:18 03:04:41 89° 283° (WNW) 03:10:01 435.225
ITAMSAT 1 15 Feb 03:03:36 03:08:47 57° 101° (E) 03:13:56 435.822/435.867
MOZHAYETS 4 15 Feb 03:04:51 03:09:16 50° 70° (ENE) 03:13:45
Cosmos 2504 15 Feb 03:10:56 03:17:21 23° 76° (ENE) 03:23:48 435.465 / 435.565
YUBILEINY 15 Feb 03:18:31 03:27:20 86° 98° (E) 03:36:15 435.215
SWISSCUBE 15 Feb 03:21:03 03:21:47 10° 276° (W) 03:22:30 437.505
Oscar 19 15 Feb 03:21:59 03:26:16 28° 299° (WNW) 03:30:33 437.125/150
SO-50 15 Feb 03:30:28 03:34:37 28° 116° (ESE) 03:38:49 436.795
STARS 15 Feb 03:33:18 03:37:39 65° 257° (WSW) 03:42:03 437.465
AIST 2 15 Feb 03:39:07 03:41:44 16° 247° (WSW) 03:44:19 435.215
HORYU 2 15 Feb 03:44:35 03:46:55 14° 88° (E) 03:49:17 437.375
DANDE 15 Feb 03:47:11 03:54:28 31° 300° (WNW) 04:01:35 436.750
AO-7 15 Feb 03:51:26 03:59:22 45° 99° (E) 04:07:13 29.400- 29.500
CUBESAT XI-V 15 Feb 04:02:16 04:06:06 26° 62° (ENE) 04:09:59 437.345
KKS-1 15 Feb 04:07:31 04:10:46 20° 269° (W) 04:14:02 437.445
CUSAT 1 15 Feb 04:11:14 04:15:40 16° 310° (NW) 04:19:52 437.405
Cosmos 2491 15 Feb 04:25:00 04:30:16 18° 288° (WNW) 04:35:32 435.465 / 435.565
JAS-2 15 Feb 04:40:01 04:42:25 13° 314° (NW) 04:44:45 435.910
Gurwin Techsat 1B 15 Feb 04:40:28 04:43:56 18° 306° (NW) 04:47:24 435.225
MOZHAYETS 4 15 Feb 04:43:09 04:46:45 22° 269° (W) 04:50:22
ITAMSAT 1 15 Feb 04:43:38 04:47:57 26° 300° (WNW) 04:52:14 435.822/435.867
Cosmos 2504 15 Feb 05:00:43 05:09:31 86° 98° (E) 05:18:28 435.465 / 435.565
M-CUBED/EXP-1 PRIME 15 Feb 05:07:25 05:10:51 66° 108° (ESE) 05:14:30 437.505
SO-50 15 Feb 05:09:59 05:14:52 59° 316° (NW) 05:19:47 436.795
AUBIESAT-1 15 Feb 05:11:51 05:15:19 61° 108° (ESE) 05:19:00 437.475
YUBILEINY 15 Feb 05:18:07 05:25:22 28° 302° (WNW) 05:32:41 435.215
HORYU 2 15 Feb 05:19:35 05:24:03 78° 288° (WNW) 05:28:32 437.375
CUTE-I 15 Feb 05:25:26 05:28:23 15° 86° (E) 05:31:19 437.470
STRAND 1 15 Feb 05:26:44 05:31:01 27° 60° (ENE) 05:35:19 437.568
CUBESAT XI-V 15 Feb 05:38:41 05:43:15 49° 261° (W) 05:47:52 437.345
Cubesat XI-IV 15 Feb 05:40:25 05:44:16 20° 89° (E) 05:48:06 437.490
AO-7 15 Feb 05:44:18 05:52:19 54° 301° (WNW) 06:00:17 29.400- 29.500
O/OREOS (USA 219) 15 Feb 06:00:25 06:01:51 11° 97° (E) 06:03:18 437.305
